TimeMST,TemperatureF,Dew PointF,Humidity,Sea Level PressureIn,VisibilityMPH,Wind Direction,Wind SpeedMPH,Gust SpeedMPH,PrecipitationIn,Events,Conditions,WindDirDegrees,DateUTC
12:53 AM,37.9,32.0,79,30.17,10.0,Calm,Calm,-,0.00,,Overcast,0,2011-11-22 07:53:00
1:53 AM,34.0,30.0,85,30.20,10.0,SSE,4.6,-,N/A,,Mostly Cloudy,150,2011-11-22 08:53:00
2:53 AM,35.1,30.9,85,30.21,10.0,SE,4.6,-,N/A,,Overcast,140,2011-11-22 09:53:00
3:53 AM,35.1,30.0,82,30.23,10.0,SE,4.6,-,N/A,,Overcast,140,2011-11-22 10:53:00
4:53 AM,33.1,28.0,82,30.25,10.0,SW,4.6,-,N/A,,Scattered Clouds,230,2011-11-22 11:53:00
5:53 AM,28.9,26.1,89,30.27,10.0,SSE,3.5,-,N/A,,Clear,150,2011-11-22 12:53:00
6:53 AM,28.0,24.1,85,30.31,10.0,South,5.8,-,N/A,,Clear,170,2011-11-22 13:53:00
7:53 AM,28.0,25.0,88,30.34,10.0,SE,4.6,-,N/A,,Clear,130,2011-11-22 14:53:00
8:53 AM,37.0,28.0,70,30.35,10.0,SW,3.5,-,N/A,,Clear,230,2011-11-22 15:53:00
9:53 AM,41.0,30.9,67,30.33,10.0,SSE,3.5,-,N/A,,Clear,150,2011-11-22 16:53:00
10:53 AM,46.0,28.9,51,30.30,10.0,Calm,Calm,-,N/A,,Clear,0,2011-11-22 17:53:00
11:53 AM,50.0,28.0,43,30.27,10.0,NNE,5.8,-,N/A,,Clear,20,2011-11-22 18:53:00
12:53 PM,51.1,26.1,38,30.24,10.0,Variable,4.6,-,N/A,,Clear,0,2011-11-22 19:53:00
1:53 PM,52.0,26.1,37,30.24,10.0,NNW,5.8,-,N/A,,Clear,340,2011-11-22 20:53:00
2:53 PM,53.1,26.1,35,30.23,10.0,NNW,4.6,-,N/A,,Clear,330,2011-11-22 21:53:00
3:53 PM,52.0,26.1,37,30.24,10.0,NNW,6.9,-,N/A,,Clear,330,2011-11-22 22:53:00
4:53 PM,46.9,26.1,44,30.28,10.0,NW,5.8,-,N/A,,Clear,320,2011-11-22 23:53:00
5:53 PM,43.0,27.0,53,30.34,10.0,Calm,Calm,-,N/A,,Clear,0,2011-11-23 00:53:00
6:53 PM,37.0,25.0,62,30.38,10.0,SSE,5.8,-,N/A,,Clear,150,2011-11-23 01:53:00
7:53 PM,36.0,25.0,64,30.40,10.0,SSE,9.2,-,N/A,,Clear,160,2011-11-23 02:53:00
8:53 PM,33.1,23.0,66,30.39,10.0,SE,6.9,-,N/A,,Clear,140,2011-11-23 03:53:00
9:53 PM,33.1,24.1,70,30.39,10.0,SSE,9.2,-,N/A,,Clear,150,2011-11-23 04:53:00
10:53 PM,30.0,21.9,72,30.39,10.0,SSE,4.6,-,N/A,,Clear,160,2011-11-23 05:53:00
11:53 PM,33.1,23.0,66,30.36,10.0,SSE,9.2,-,N/A,,Clear,150,2011-11-23 06:53:00